Location: Cheyres
(46.8153°N, 6.7877°E)
Time: 22:39:33
(UTC+00:00)

FENGYUN 1C DEB - Pass Details

Date: 02 December 2021
Orbit: 843 x 915 km, 99.0° (Epoch: 21 January)

Event Time Altitude Azimuth Distance (km) Brightness Sun altitude
Exits shadow 18:35:24 25° 0° (N) 1,689 ? -28.2°
Drops below altitude 10° 18:37:37 10° 352° (N) 2,501 ? -28.6°
Sets 18:40:00 0° 349° (N) 3,434 ? -29.0°
